This is the latest recevied weather packets stored in our database for station/object KI7JYE. If no packets are shown the sender has not sent any weather packets the latest 10 day(s).
| Time | Temp. | Humidity | Pressure | Rain* | Wind** | Luminosity | Snow |
|---|---|---|---|---|---|---|---|
| 1777935878 | 23.89° C | 59% | 1010.1 hPa | 0 mm | - | 491 W/m² | - |
| 1777935577 | 23.33° C | 61% | 1010.1 hPa | 0 mm | - | 478 W/m² | - |
| 1777935274 | 24.44° C | 58% | 1010.3 hPa | 0 mm | - | 491 W/m² | - |
| 1777934971 | 23.89° C | 59% | 1010.2 hPa | 0 mm | - | 527 W/m² | - |
| 1777934667 | 23.89° C | 59% | 1010.5 hPa | 0 mm | - | 526 W/m² | - |
| 1777934365 | 23.89° C | 58% | 1010.2 hPa | 0 mm | - | 537 W/m² | - |
| 1777934060 | 23.89° C | 59% | 1010.6 hPa | 0 mm | - | 541 W/m² | - |
| 1777933756 | 23.33° C | 59% | 1010.4 hPa | 0 mm | - | 542 W/m² | - |
| 1777933454 | 22.78° C | 62% | 1010.6 hPa | 0 mm | - | 536 W/m² | - |
| 1777933152 | 23.33° C | 60% | 1010.6 hPa | 0 mm | - | 567 W/m² | - |
| 1777932848 | 23.33° C | 59% | 1010.5 hPa | 0 mm | - | 571 W/m² | - |
| 1777932545 | 23.33° C | 61% | 1010.6 hPa | 0 mm | - | 580 W/m² | - |
| 1777932242 | 22.78° C | 60% | 1011 hPa | 0 mm | - | 574 W/m² | - |
| 1777931939 | 23.33° C | 58% | 1010.8 hPa | 0 mm | - | 587 W/m² | - |
| 1777931635 | 23.33° C | 59% | 1010.8 hPa | 0 mm | - | 595 W/m² | - |
| 1777931332 | 23.33° C | 61% | 1010.8 hPa | 0 mm | - | 584 W/m² | - |
| 1777931029 | 23.33° C | 61% | 1011 hPa | 0 mm | - | 531 W/m² | - |
| 1777930725 | 22.78° C | 62% | 1011.1 hPa | 0 mm | - | 456 W/m² | - |
| 1777930421 | 20.56° C | 67% | 1011.1 hPa | 0 mm | - | 529 W/m² | - |
| 1777930119 | 21.67° C | 64% | 1011.2 hPa | 0 mm | - | 572 W/m² | - |
| 1777929815 | 22.78° C | 61% | 1011.1 hPa | 0 mm | - | 557 W/m² | - |
| 1777929513 | 22.78° C | 61% | 1011.4 hPa | 0 mm | - | 616 W/m² | - |
| 1777929208 | 21.67° C | 62% | 1011.3 hPa | 0 mm | - | 603 W/m² | - |
| 1777928906 | 21.67° C | 65% | 1011.7 hPa | 0 mm | - | 593 W/m² | - |
| 1777928603 | 20.56° C | 65% | 1011.5 hPa | 0 mm | - | 605 W/m² | - |
* Rain latest hour (hover to see other rain measurements)
** Current wind speed in m/s (hover to see current wind gust speed)